Weather in Mordovo

Russia / Tambov Oblast     52°05′08″N   40°46′10″E
temp.,
°C
wind,
m/s
gust,
m/s
humid.,
%
clouds,
%
prec.,
mm/h
press.,
hPa
HPBL,
m
27 february, sat
sat2700:00+2w51195100 0.0 1008357
03:00+1w61294100 0.1 1008402
06:00+1w71392100 0.0 1006500
09:00+1wnw61297100 0.1 1006690
12:00+2wnw7139796 0.0 1006810
15:00+1wnw8149795 0.1 1007836
18:00−1nnw71385100 0.1 1008778
21:00−6nnw5109079 0.1 1011475
28 february, sun
sun2800:00−7nnw499221 0.0 1013397
03:00−8nnw379212 0.0 1014337
06:00−8nw259449 0.0 1015212
09:00−7wnw369370 0.1 1015352
12:00−4nw468797 0.0 1015441
15:00−3nw368893 0.0 1015458
18:00−4n229691 0.1 101636
21:00−5nne239787 0.1 101897
1 march, mon
mon100:00−7ne259591 0.1 1019177
03:00−8nne229473 0.1 102255
06:00−9n22947 0.0 102352
09:00−8n239114 0.0 1026146
12:00−5nnw238360 0.0 1026404
15:00−4nw238379 0.0 1026455
18:00−5w339084 0.0 102548
21:00−5wsw369175 0.0 1025118
2 march, tue
tue200:00−5wsw5119495 0.0 1023312
03:00−3wsw6139098 0.0 1020421
06:00−2wsw81492100 0.1 1016536
09:000wsw81596100 1.1 1013666
12:00+1wnw71398100 1.6 1011682
15:00+1nw71293100 1.8 1011811
18:00−1nw5138669 0.1 1011435
21:00−1nw6138780 0.1 1013548
3 march, wed
wed300:00−1nw51288100 0.1 1013552
03:00−2wnw61291100 0.1 1013527
06:00−3nw6129698 0.3 1013570
09:00−3nnw7119198 0.4 1014779
12:00−2nw71188100 0.1 10161061
15:00−2nnw81180100 0.3 10171001
18:00−3nw5138697 0.0 1018671
21:00−2nnw7138988 0.6 1021684